This demonstration page uses our WeatherBlox Daily Observations layout. Learn more.

Left ArrowRight Arrow

Hourly Observations for October 30, 2021

Temp ( °F °C ) Dew Point ( °F °C ) Humidity (%) Winds ( mph kmh ) Pressure ( in mb ) Visibility ( mi km ) Precip ( " mm )
12:15 am 00:15 Clear 44 6.7 27 -2.7 51 51 S 8 13 29.97 1015 10 16 0.00 0.00
12:35 am 00:35 Clear 44 6.8 28 -2.5 52 52 S 6 9 29.96 1015 10 16 0.00 0.00
12:55 am 00:55 Clear 44 6.5 28 -2.3 54 54 S 5 7 29.96 1015 10 16 0.00 0.00
1:15 am 01:15 Clear 43 6.2 28 -2.1 56 56 S 6 9 29.97 1015 10 16 0.00 0.00
1:35 am 01:35 Clear 43 6.2 29 -1.8 57 57 S 6 9 29.96 1014 10 16 0.00 0.00
1:55 am 01:55 Clear 43 6.2 29 -1.6 58 58 Calm 29.95 1014 10 16 0.00 0.00
2:15 am 02:15 Clear 41 4.9 29 -1.6 63 63 S 3 6 29.96 1015 10 16 0.00 0.00
2:35 am 02:35 Clear 41 5.1 29 -1.5 63 63 SSW 6 9 29.96 1014 10 16 0.00 0.00
2:55 am 02:55 Clear 42 5.4 30 -1.3 62 62 SSW 7 11 29.95 1014 10 16 0.00 0.00
3:15 am 03:15 Clear 42 5.5 29 -1.5 61 61 SSW 6 9 29.94 1014 10 16 0.00 0.00
3:35 am 03:35 Clear 43 6 29 -1.5 59 59 SSW 9 15 29.94 1014 10 16 0.00 0.00
3:55 am 03:55 Clear 43 6.1 29 -1.5 59 59 SSW 7 11 29.93 1013 10 16 0.00 0.00
4:15 am 04:15 Clear 43 6.2 29 -1.7 57 57 SSW 9 15 29.92 1013 10 16 0.00 0.00
4:35 am 04:35 Clear 44 6.5 28 -2 55 55 SSW 10 17 29.90 1013 10 16 0.00 0.00
4:55 am 04:55 Clear 43 6.2 28 -2 56 56 SSW 9 15 29.90 1012 10 16 0.00 0.00
5:15 am 05:15 Clear 44 6.5 29 -1.7 56 56 SSW 9 15 29.89 1012 10 16 0.00 0.00
5:35 am 05:35 Clear 45 7 29 -1.7 54 54 SSW 10 17 29.88 1012 10 16 0.00 0.00
5:55 am 05:55 Clear 44 6.8 29 -1.5 56 56 SSW 10 17 29.87 1012 10 16 0.00 0.00
6:15 am 06:15 Clear 43 6.2 29 -1.4 59 59 SSW 8 13 29.88 1012 10 16 0.00 0.00
6:35 am 06:35 Clear 42 5.7 30 -1 62 62 SSW 8 13 29.88 1012 10 16 0.00 0.00
6:55 am 06:55 Clear 41 5 30 -1 66 66 SSW 9 15 29.89 1012 10 16 0.00 0.00
7:15 am 07:15 Clear 41 4.8 31 -0.7 68 68 Calm 29.89 1012 10 16 0.00 0.00
7:35 am 07:35 Clear 40 4.3 31 -0.7 70 70 SSW 8 13 29.88 1012 10 16 0.00 0.00
7:55 am 07:55 Clear 40 4.3 31 -0.7 70 70 SSW 8 13 29.87 1012 10 16 0.00 0.00
8:15 am 08:15 Sunny 40 4.5 31 -0.5 70 70 SSW 6 9 29.88 1012 10 16 0.00 0.00
8:35 am 08:35 Sunny 40 4.6 32 0 72 72 SSW 6 9 29.88 1012 10 16 0.00 0.00
8:55 am 08:55 Sunny 43 6 33 0.5 68 68 SW 7 11 29.87 1011 10 16 0.00 0.00
9:15 am 09:15 Sunny 44 6.5 33 0.5 66 66 SW 8 13 29.86 1011 10 16 0.00 0.00
9:35 am 09:35 Sunny 46 7.8 34 1 62 62 WSW 6 9 29.85 1011 10 16 0.00 0.00
9:55 am 09:55 Sunny 48 9.1 34 1.2 58 58 W 7 11 29.84 1011 10 16 0.00 0.00
10:15 am 10:15 Sunny 51 10.6 36 2.1 56 56 W 8 13 29.84 1010 10 16 0.00 0.00
10:35 am 10:35 Sunny 56 13.5 36 2.2 47 47 W 8 13 29.80 1009 10 16 0.00 0.00
10:55 am 10:55 Sunny 59 15 35 1.7 41 41 NW 9 15 29.80 1009 10 16 0.00 0.00
11:15 am 11:15 Sunny 60 15.6 36 2.2 41 41 NW 12 19 29.79 1009 10 16 0.00 0.00
11:35 am 11:35 Sunny 60 15.7 37 2.5 41 41 NW 12 19 29.80 1009 10 16 0.00 0.00
11:55 am 11:55 Sunny 60 15.7 38 3.2 43 43 NW 10 17 29.80 1009 10 16 0.00 0.00
12:15 pm 12:15 Sunny 62 16.5 38 3.6 42 42 NW 14 22 29.81 1009 10 16 0.00 0.00
12:35 pm 12:35 Sunny 64 17.6 39 3.9 40 40 NNW 15 24 29.79 1009 10 16 0.00 0.00
12:55 pm 12:55 Sunny 65 18.2 39 4.1 39 39 NNW 18 30 29.78 1009 10 16 0.00 0.00
1:15 pm 13:15 Sunny 65 18.4 40 4.5 40 40 N 18 30 29.78 1008 10 16 0.00 0.00
1:35 pm 13:35 Sunny 66 19.1 41 4.9 39 39 NNW 18 30 29.77 1008 10 16 0.00 0.00
1:55 pm 13:55 Sunny 67 19.4 41 4.9 39 39 N 21 33 29.77 1008 10 16 0.00 0.00
2:15 pm 14:15 Sunny 67 19.5 41 5.1 39 39 N 17 28 29.77 1008 10 16 0.00 0.00
2:35 pm 14:35 Sunny 67 19.6 41 5.2 39 39 N 23 37 29.77 1008 10 16 0.00 0.00
2:55 pm 14:55 Sunny 67 19.5 42 5.4 40 40 N 20 31 29.78 1009 10 16 0.00 0.00
3:15 pm 15:15 Sunny 67 19.7 42 5.5 40 40 N 17 28 29.78 1008 10 16 0.00 0.00
3:35 pm 15:35 Sunny 67 19.6 42 5.3 39 39 N 26 43 29.79 1009 10 16 0.00 0.00
3:55 pm 15:55 Sunny 67 19.7 42 5.7 40 40 N 24 39 29.79 1009 10 16 0.00 0.00
4:15 pm 16:15 Sunny 66 19 43 6 43 43 N 26 43 29.82 1010 10 16 0.00 0.00
4:35 pm 16:35 Sunny 65 18.5 42 5.8 44 44 N 24 39 29.83 1010 10 16 0.00 0.00
4:55 pm 16:55 Sunny 64 18 43 5.9 45 45 N 24 39 29.84 1011 10 16 0.00 0.00
5:15 pm 17:15 Sunny 63 17.4 42 5.8 47 47 N 25 41 29.87 1011 10 16 0.00 0.00
5:35 pm 17:35 Sunny 62 16.4 42 5.6 49 49 N 25 41 29.89 1012 10 16 0.00 0.00
5:55 pm 17:55 Sunny 60 15.6 42 5.4 51 51 N 21 33 29.90 1013 10 16 0.00 0.00
6:15 pm 18:15 Sunny 59 14.8 42 5.5 54 54 N 20 31 29.93 1014 10 16 0.00 0.00
6:35 pm 18:35 Sunny 56 13.6 42 5.5 58 58 N 16 26 29.94 1014 10 16 0.00 0.00
6:55 pm 18:55 Clear 55 13 42 5.5 61 61 N 15 24 29.96 1014 10 16 0.00 0.00
7:15 pm 19:15 Clear 55 12.7 42 5.5 62 62 N 20 31 29.98 1015 10 16 0.00 0.00
7:35 pm 19:35 Clear 54 12.2 41 5 62 62 N 21 33 29.99 1016 10 16 0.00 0.00
7:55 pm 19:55 Clear 52 11.3 41 5 65 65 N 20 31 30.02 1017 10 16 0.00 0.00
8:15 pm 20:15 Clear 52 11 40 4.6 65 65 N 15 24 30.03 1017 10 16 0.00 0.00
8:35 pm 20:35 Clear 51 10.5 40 4.6 67 67 N 15 24 30.04 1017 10 16 0.00 0.00
8:55 pm 20:55 Clear 51 10.3 39 4.1 66 66 N 20 31 30.04 1017 10 16 0.00 0.00
9:15 pm 21:15 Clear 49 9.5 39 4 69 69 N 20 31 30.06 1018 10 16 0.00 0.00
9:35 pm 21:35 Clear 48 8.9 38 3.5 69 69 N 14 22 30.07 1018 10 16 0.00 0.00
9:55 pm 21:55 Clear 46 7.9 38 3.1 72 72 N 10 17 30.08 1019 10 16 0.00 0.00
10:15 pm 22:15 Clear 46 7.5 38 3.2 74 74 N 15 24 30.11 1019 10 16 0.00 0.00
10:35 pm 22:35 Clear 45 7.1 37 3 75 75 N 12 19 30.12 1020 10 16 0.00 0.00
10:55 pm 22:55 Clear 45 7.3 37 2.7 73 73 N 15 24 30.13 1020 10 16 0.00 0.00
11:15 pm 23:15 Clear 45 7 37 2.5 73 73 N 14 22 30.14 1021 10 16 0.00 0.00
11:35 pm 23:35 Clear 44 6.5 37 2.5 76 76 N 16 26 30.15 1021 10 16 0.00 0.00
11:55 pm 23:55 Clear 44 6.5 36 2.1 74 74 N 13 20 30.16 1021 10 16 0.00 0.00

Powered by AerisWeather